Zurück zum Katalog

COSMOS 1867 COOLANT

AktivLEO
NORAD 50794·DEBRIS·🇷🇺 Russia

Gestartet Jul 10, 1987 von Baikonur Cosmodrome

Loading…

Nächste Überflüge (nächste 24 Stunden)

TLE

AlterndSource: Space-Track

Epoche: Sep 11, 2026, 00:59 UTC

1 50794U 87060AW  26254.04150676  .00000243  00000-0  11990-3 0  9996
2 50794  65.0068 125.3839 0018334 281.0765  78.8259 14.35150690421191

Verfolge COSMOS 1867 COOLANT in Echtzeit mit AllMySat

Download on the App Store